This is the latest recevied weather packets stored in our database for station/object OM6ACB-6. If no packets are shown the sender has not sent any weather packets the latest 10 day(s).
| Time | Temp. | Humidity | Pressure | Rain* | Wind** | Luminosity | Snow |
|---|---|---|---|---|---|---|---|
| 1777765387 | 5° C | 30% | 1022.2 hPa | 0 mm | - | - | - |
| 1777764786 | 5° C | 30% | 1022.1 hPa | 0 mm | - | - | - |
| 1777764186 | 5° C | 30% | 1022.1 hPa | 0 mm | - | - | - |
| 1777763586 | 5° C | 30% | 1022.1 hPa | 0 mm | - | - | - |
| 1777762985 | 7.22° C | 29% | 1022.4 hPa | 0 mm | - | - | - |
| 1777762385 | 7.22° C | 29% | 1022.5 hPa | 0 mm | - | - | - |
| 1777761785 | 7.22° C | 29% | 1022.5 hPa | 0 mm | - | - | - |
| 1777761185 | 7.22° C | 29% | 1022.5 hPa | 0 mm | - | - | - |
| 1777760584 | 7.78° C | 29% | 1022.5 hPa | 0 mm | - | - | - |
| 1777759984 | 7.78° C | 29% | 1022.7 hPa | 0 mm | - | - | - |
| 1777759384 | 7.78° C | 29% | 1022.5 hPa | 0 mm | - | - | - |
| 1777758783 | 7.78° C | 29% | 1022.4 hPa | 0 mm | - | - | - |
| 1777758183 | 7.78° C | 29% | 1022.3 hPa | 0 mm | - | - | - |
| 1777757583 | -36.11° C | - | - | - | - | - | - |
| 1777756983 | 8.89° C | 28% | 1022.6 hPa | 0 mm | - | - | - |
| 1777756382 | 8.89° C | 28% | 1022.5 hPa | 0 mm | - | - | - |
| 1777755782 | 10.56° C | 27% | 1022.7 hPa | 0 mm | - | - | - |
| 1777755182 | 10.56° C | 27% | 1022.7 hPa | 0 mm | - | - | - |
| 1777754581 | 11.11° C | 27% | 1022.6 hPa | 0 mm | - | - | - |
| 1777753981 | 10.56° C | 27% | 1022.5 hPa | 0 mm | - | - | - |
| 1777753381 | 13.89° C | 25% | 1023.2 hPa | 0 mm | - | - | - |
| 1777752781 | 13.89° C | 25% | 1023.1 hPa | 0 mm | - | - | - |
| 1777752180 | 15° C | 25% | 1023.2 hPa | 0 mm | - | - | - |
| 1777751580 | 14.44° C | 25% | 1023.2 hPa | 0 mm | - | - | - |
| 1777750980 | 15° C | 25% | 1023.1 hPa | 0 mm | - | - | - |
* Rain latest hour (hover to see other rain measurements)
** Current wind speed in m/s (hover to see current wind gust speed)